When you browse on this site, cookies collect data to enhance your experience and personalize the content and advertising you see.
Visit our Privacy Policy to learn more. By continuing to use the site, you agree to this use of cookies and data.
  • In Portugal
  • List of Countries
  • For 7 days
  • Water Temperature
  • Satellite Maps
  • Weather Map
  • Weather Widgets
  • user-avatar
    Login

    Hourly Weather Misrata

    Today, 20 March, Wednesday

    Time Temperature Precipitation Wind Pressure Humidity
    00:00 +19°C° 0 mm 4 mps 755 mmHg 55%
    01:00 +19°C° 0 mm 3 mps 755 mmHg 58%
    02:00 +18°C° 0 mm 4 mps 755 mmHg 63%
    03:00 +17°C° 0 mm 4 mps 755 mmHg 68%
    04:00 +17°C° 0 mm 4 mps 754 mmHg 74%
    05:00 +17°C° 0 mm 4 mps 754 mmHg 75%
    06:00 +17°C° 0 mm 4 mps 754 mmHg 76%
    07:00 +17°C° 0 mm 4 mps 754 mmHg 77%
    08:00 +18°C° 0 mm 4 mps 754 mmHg 70%
    09:00 +19°C° 0 mm 4 mps 755 mmHg 63%
    10:00 +20°C° 0 mm 4 mps 755 mmHg 56%
    11:00 +21°C° 0 mm 6 mps 755 mmHg 55%
    12:00 +21°C° 0 mm 7 mps 755 mmHg 55%
    13:00 +22°C° 0 mm 9 mps 754 mmHg 54%
    14:00 +22°C° 0 mm 9 mps 754 mmHg 53%
    15:00 +21°C° 0 mm 9 mps 754 mmHg 52%
    16:00 +21°C° 0 mm 10 mps 754 mmHg 52%
    17:00 +19°C° 0 mm 9 mps 755 mmHg 55%
    18:00 +18°C° 0 mm 9 mps 755 mmHg 57%
    19:00 +18°C° 0 mm 8 mps 755 mmHg 60%
    20:00 +17°C° 0 mm 8 mps 756 mmHg 62%
    21:00 +16°C° 0 mm 7 mps 757 mmHg 63%
    22:00 +16°C° 0 mm 7 mps 757 mmHg 64%
    23:00 +15°C° 0 mm 6 mps 757 mmHg 63%

    Tomorrow, 21 March, Thursday

    Time Temperature Precipitation Wind Pressure Humidity
    00:00 +15°C° 0 mm 5 mps 757 mmHg 63%
    01:00 +15°C° 0 mm 4 mps 758 mmHg 62%
    02:00 +14°C° 0 mm 4 mps 757 mmHg 62%
    03:00 +14°C° 0 mm 4 mps 757 mmHg 63%
    04:00 +14°C° 0 mm 4 mps 757 mmHg 63%
    05:00 +14°C° 0 mm 3 mps 758 mmHg 63%
    06:00 +15°C° 0 mm 2 mps 758 mmHg 63%
    07:00 +15°C° 0 mm 1 mps 758 mmHg 63%
    08:00 +16°C° 0 mm 1 mps 759 mmHg 57%
    09:00 +17°C° 0 mm 2 mps 759 mmHg 52%
    10:00 +18°C° 0 mm 2 mps 760 mmHg 46%
    11:00 +21°C° 0 mm 1 mps 760 mmHg 42%
    12:00 +22°C° 0 mm 1 mps 759 mmHg 37%
    13:00 +23°C° 0 mm 1 mps 759 mmHg 33%
    14:00 +22°C° 0 mm 3 mps 759 mmHg 35%
    15:00 +22°C° 0 mm 4 mps 758 mmHg 38%
    16:00 +21°C° 0 mm 6 mps 758 mmHg 41%
    17:00 +20°C° 0 mm 6 mps 758 mmHg 48%
    18:00 +19°C° 0 mm 6 mps 759 mmHg 55%
    19:00 +17°C° 0 mm 6 mps 759 mmHg 62%
    20:00 +16°C° 0.4 mm 6 mps 760 mmHg 66%
    21:00 +16°C° 0.4 mm 7 mps 760 mmHg 69%
    22:00 +16°C° 0.4 mm 7 mps 760 mmHg 73%
    23:00 +16°C° 0.3 mm 7 mps 760 mmHg 73%

    Day after tomorrow, 22 March, Friday

    Time Temperature Precipitation Wind Pressure Humidity
    00:00 +16°C° 0.3 mm 7 mps 760 mmHg 74%
    01:00 +16°C° 0.3 mm 7 mps 760 mmHg 75%
    02:00 +15°C° 0.2 mm 7 mps 760 mmHg 73%
    03:00 +15°C° 0.2 mm 8 mps 760 mmHg 71%
    04:00 +15°C° 0.2 mm 8 mps 759 mmHg 69%
    05:00 +15°C° 0 mm 8 mps 759 mmHg 72%
    06:00 +15°C° 0 mm 8 mps 759 mmHg 74%
    07:00 +15°C° 0 mm 8 mps 759 mmHg 77%
    08:00 +16°C° 0.1 mm 7 mps 760 mmHg 77%
    09:00 +16°C° 0.1 mm 6 mps 760 mmHg 78%
    10:00 +17°C° 0.1 mm 6 mps 760 mmHg 78%
    11:00 +17°C° 0.1 mm 6 mps 759 mmHg 76%
    12:00 +17°C° 0.1 mm 7 mps 759 mmHg 74%
    13:00 +17°C° 0.1 mm 7 mps 759 mmHg 72%
    14:00 +17°C° 0 mm 7 mps 758 mmHg 69%
    15:00 +19°C° 0 mm 6 mps 758 mmHg 66%
    16:00 +20°C° 0 mm 6 mps 758 mmHg 63%
    17:00 +19°C° 0 mm 5 mps 758 mmHg 66%
    18:00 +17°C° 0 mm 5 mps 759 mmHg 69%
    19:00 +16°C° 0 mm 5 mps 759 mmHg 72%
    20:00 +17°C° 0 mm 4 mps 760 mmHg 73%
    21:00 +17°C° 0 mm 4 mps 760 mmHg 75%
    22:00 +16°C° 0 mm 3 mps 761 mmHg 76%
    23:00 +16°C° 0 mm 3 mps 761 mmHg 77%

    23 March, Saturday

    Time Temperature Precipitation Wind Pressure Humidity
    00:00 +15°C° 0 mm 4 mps 760 mmHg 78%
    01:00 +14°C° 0 mm 4 mps 760 mmHg 79%
    02:00 +14°C° 0 mm 3 mps 760 mmHg 79%
    03:00 +14°C° 0 mm 3 mps 760 mmHg 79%
    04:00 +14°C° 0 mm 3 mps 760 mmHg 78%
    05:00 +14°C° 0 mm 3 mps 761 mmHg 76%
    06:00 +14°C° 0 mm 3 mps 761 mmHg 74%
    07:00 +14°C° 0 mm 3 mps 762 mmHg 71%
    08:00 +17°C° 0 mm 3 mps 762 mmHg 63%
    09:00 +18°C° 0 mm 3 mps 762 mmHg 55%
    10:00 +19°C° 0 mm 3 mps 763 mmHg 47%
    11:00 +20°C° 0 mm 3 mps 762 mmHg 45%
    12:00 +21°C° 0 mm 3 mps 762 mmHg 44%
    13:00 +21°C° 0 mm 3 mps 762 mmHg 42%
    14:00 +21°C° 0 mm 4 mps 762 mmHg 44%
    15:00 +21°C° 0 mm 5 mps 761 mmHg 46%
    16:00 +20°C° 0 mm 6 mps 761 mmHg 48%
    17:00 +19°C° 0 mm 5 mps 761 mmHg 53%
    18:00 +17°C° 0 mm 5 mps 762 mmHg 57%
    19:00 +17°C° 0 mm 5 mps 762 mmHg 61%
    20:00 +17°C° 0 mm 4 mps 762 mmHg 63%
    21:00 +17°C° 0 mm 3 mps 763 mmHg 65%
    22:00 +17°C° 0 mm 3 mps 763 mmHg 68%
    23:00 +17°C° 0 mm 2 mps 763 mmHg 69%

    24 March, Sunday

    Time Temperature Precipitation Wind Pressure Humidity
    00:00 +16°C° 0 mm 2 mps 763 mmHg 71%
    01:00 +16°C° 0 mm 1 mps 763 mmHg 72%
    02:00 +16°C° 0 mm 1 mps 763 mmHg 73%
    03:00 +15°C° 0 mm 1 mps 763 mmHg 75%
    04:00 +14°C° 0 mm 0 mps 763 mmHg 76%
    05:00 +15°C° 0 mm 1 mps 763 mmHg 74%
    06:00 +15°C° 0 mm 1 mps 763 mmHg 72%
    07:00 +16°C° 0 mm 1 mps 763 mmHg 70%
    08:00 +18°C° 0 mm 1 mps 764 mmHg 64%
    09:00 +19°C° 0 mm 1 mps 764 mmHg 57%
    10:00 +20°C° 0 mm 1 mps 764 mmHg 51%
    11:00 +20°C° 0 mm 2 mps 764 mmHg 49%
    12:00 +20°C° 0 mm 3 mps 763 mmHg 48%
    13:00 +21°C° 0 mm 4 mps 763 mmHg 46%
    14:00 +21°C° 0 mm 5 mps 762 mmHg 49%
    15:00 +20°C° 0 mm 6 mps 762 mmHg 52%
    16:00 +20°C° 0 mm 6 mps 762 mmHg 55%
    17:00 +19°C° 0 mm 6 mps 762 mmHg 58%
    18:00 +17°C° 0 mm 6 mps 762 mmHg 61%
    19:00 +16°C° 0 mm 6 mps 762 mmHg 65%
    20:00 +16°C° 0 mm 5 mps 763 mmHg 66%
    21:00 +16°C° 0 mm 5 mps 763 mmHg 67%
    22:00 +17°C° 0 mm 4 mps 763 mmHg 69%
    23:00 +17°C° 0 mm 4 mps 763 mmHg 71%

    25 March, Monday

    Time Temperature Precipitation Wind Pressure Humidity
    00:00 +17°C° 0 mm 4 mps 762 mmHg 73%
    01:00 +15°C° 0 mm 4 mps 762 mmHg 75%
    02:00 +15°C° 0 mm 4 mps 762 mmHg 76%
    03:00 +16°C° 0 mm 3 mps 762 mmHg 77%
    04:00 +16°C° 0 mm 3 mps 762 mmHg 78%
    05:00 +16°C° 0 mm 3 mps 762 mmHg 77%
    06:00 +15°C° 0 mm 4 mps 762 mmHg 77%
    07:00 +15°C° 0 mm 4 mps 762 mmHg 77%
    08:00 +15°C° 0.7 mm 4 mps 762 mmHg 77%
    09:00 +15°C° 0.7 mm 4 mps 762 mmHg 77%
    10:00 +15°C° 0.7 mm 4 mps 763 mmHg 77%
    11:00 +17°C° 0.2 mm 4 mps 762 mmHg 72%
    12:00 +17°C° 0.2 mm 5 mps 762 mmHg 66%
    13:00 +19°C° 0.2 mm 5 mps 761 mmHg 61%
    14:00 +19°C° 0 mm 5 mps 761 mmHg 58%
    15:00 +19°C° 0 mm 5 mps 760 mmHg 56%
    16:00 +20°C° 0 mm 5 mps 760 mmHg 54%
    17:00 +19°C° 0 mm 5 mps 760 mmHg 57%
    18:00 +17°C° 0 mm 5 mps 760 mmHg 60%
    19:00 +16°C° 0 mm 5 mps 760 mmHg 64%
    20:00 +16°C° 0 mm 5 mps 760 mmHg 65%
    21:00 +16°C° 0 mm 5 mps 760 mmHg 66%
    22:00 +15°C° 0 mm 5 mps 761 mmHg 66%
    23:00 +15°C° 0 mm 5 mps 760 mmHg 68%
    Show more